Regional Weather Roundup
Issued by NWS

Home | Current Version | Previous Version | Text Only | Print | Product List | Glossary Off
Versions: 1 2 3 4 5 6 7 8 9 10 11 12 13 14 15 16 17 18 19 20 21 22 23 24 25 26 27 28 29 30 31 32 33 34 35 36 37 38 39 40 41 42 43 44 45 46 47 48 49 50

373
ASUS43 KFSD 312310
RWRSD

WEATHER ROUNDUP FOR SOUTH DAKOTA
NATIONAL WEATHER SERVICE SIOUX FALLS SD
600 PM CDT WED AUG 31 2016

NOTE: "FAIR" INDICATES FEW OR NO CLOUDS BELOW 12,000 FEET WITH NO
SIGNIFICANT WEATHER AND/OR OBSTRUCTIONS TO VISIBILITY.


SDZ001>005-009-010-012>017-010000-
NORTHWEST AND NORTH CENTRAL SOUTH DAKOTA

CITY           SKY/WX    TMP DP  RH WIND       PRES   REMARKS
BUFFALO          N/A     87  48  25 SE29G38   30.02S
FAITH            N/A     84  57  39 S16       30.13S
MOBRIDGE       SUNNY     84  61  45 E18       30.10F
$$

SDZ012>016-024>037-041>051-057-063-072>074-010000-
SOUTHWEST AND SOUTH CENTRAL SOUTH DAKOTA

CITY           SKY/WX    TMP DP  RH WIND       PRES   REMARKS
RAPID CTY ARPT MOSUNNY   82  54  37 S20       30.14F
PIERRE         SUNNY     85  63  47 E14       30.11F
CUSTER         SUNNY     72  48  42 SE9G24    30.29F
ELLSWORTH AFB  SUNNY     82  56  41 S16       30.13
PHILIP         SUNNY     86  57  37 SE17      30.12F
PINE RIDGE     SUNNY     81  55  40 SE14G23   30.18S
WINNER         FAIR      85  64  49 SE12      30.16F
$$

SDZ004>011-016>023-039-040-010000-
NORTHEAST SOUTH DAKOTA

CITY           SKY/WX    TMP DP  RH WIND       PRES   REMARKS
ABERDEEN       SUNNY     81  62  52 SE6       30.15F
WATERTOWN      MOSUNNY   81  55  40 S6        30.18F
BROOKINGS      MOSUNNY   79  59  50 E7        30.18F
SISSETON         N/A     79  57  46 SE5       30.16F
$$

SDZ017-020-022-023-036>040-048>070-010000-
SOUTHEAST SOUTH DAKOTA

CITY           SKY/WX    TMP DP  RH WIND       PRES   REMARKS
SIOUX FALLS    MOSUNNY   81  61  50 NE8       30.17F
HURON          SUNNY     83  59  44 SE6       30.14F
CHAMBERLAIN    SUNNY     85  65  51 SE6       30.15S
MITCHELL       SUNNY     83  56  39 SE3       30.15F
YANKTON        SUNNY     81  57  44 E8        30.15S
$$

ABBREVIATIONS USED IN REMARKS
   TC - TEMPERATURE IN CELSIUS
  WCI - WIND CHILL INDEX
   HX - HEAT INDEX
  VSB - VISIBILITY





USA.gov is the U.S. government's official web portal to all federal, state and local government web resources and services.